www.pogodaiklimat.ru

Погода и климат >> Архив погоды >> Россия >> Краснодарский край >> Новороссийск


АРХИВ ПОГОДЫ в Новороссийске

Время (UTC), дата Ветер
(напр.,м/с)
 
Видим.   Явления Облачность Т
(С)
Тd
(С)
f
(%)
Тe
(С)
Тes
(С)
Комфортность P
(гПа)
Po
(гПа)
Тmin
(С)
Tmax
(С)
R
(мм)
S
(см)
09 16.03 Ю 5 10 км ливневой дождь 10/10 300 м
[Cb cap]
+7.9 +6.4 90 +4 +4 по сезону 1014.5 1014.1
12 16.03 Ю 2 10 км {ливн. осадки} 9/9 600 м
[Cb calv Ac trans]
+9.4 +6.7 83 +8 +8 тепло 1013.5 1013.1
15 16.03 Ю 2 10 км 9/8 300 м
[Sc diur, vesp Ac trans]
+8.6 +6.4 86 +7 +7 тепло 1013.3 1012.9 +9.6 6
18 16.03 штиль 0 10 км 10/6 300 м
[Sc]
+7.9 +5.5 85 +7 +7 тепло 1014.0 1013.6
21 16.03 Ю 2 10 км слабый ливневой дождь 10/10 300 м
[Cb cap]
+6.9 +4.9 87 +5 +5 тепло 1013.7 1013.3
00 17.03 ЮЗ 5 10 км слабый ливневой дождь 10/10 300 м
[Cb cap]
+8.1 +6.4 89 +4 +4 тепло 1013.2 1012.8
03 17.03 ЮЗ 5 10 км {ливн. осадки} 10/10 300 м
[Sc]
+8.1 +6.1 87 +4 +4 тепло 1013.4 1013.0 +6.5 5
06 17.03 Ю 4 10 км слабый ливневой дождь 10/10 300 м
[Cb cap]
+7.5 +5.0 84 +4 +4 по сезону 1014.3 1013.9 +7.5
09 17.03 ЮВ 2 20 км {ливн. осадки} 10/10 600 м
[Sc diur, vesp]
+7.1 +5.1 87 +5 +5 по сезону 1015.5 1015.1
12 17.03 Ю 1 20 км {ливн. осадки} 9/9 600 м
[Sc diur, vesp]
+8.1 +5.6 84 +7 +8 тепло 1015.4 1015.0
15 17.03 штиль 0 20 км 8/3 600 м
[Sc diur, vesp Cs]
+8.6 +6.2 85 +8 +8 тепло 1014.3 1013.9 +9.7 5
18 17.03 СВ 6
{10}
10 км 10/10 600 м
[Sc]
+8.4 +4.8 78 +4 +4 по сезону 1013.4 1013.0
21 17.03 СВ 6
{11}
10 км 10/10 600 м
[Sc]
+8.1 +4.6 79 +4 +4 по сезону 1013.4 1013.0
00 18.03 СВ 7-10
{11}
10 км 10/10 600 м
[Sc]
+7.5 +4.0 78 +3 +3 по сезону 1012.3 1011.9
03 18.03 СВ 8-11
{11}
10 км 10/10 600 м
[Sc]
+7.5 +4.3 80 +3 +3 по сезону 1011.4 1011.0 +7.2
06 18.03 З 1
{11}
10 км слабый ливневой дождь 10/10 600 м
[Cb cap]
+6.8 +3.5 79 +6 +6 тепло 1012.1 1011.7 +6.7
09 18.03 З 2 20 км {ливн. осадки} 9/9 600 м
[Cu Sc]
+9.0 +3.4 68 +7 +9 тепло 1012.8 1012.4
12 18.03 СЗ 5 20 км {ливн. осадки} 6/6 600 м
[Cu Sc]
+10.3 +2.3 58 +8 +9 тепло 1013.2 1012.8
15 18.03 З 3 20 км 5/4 600 м
[Sc Ci fib]
+9.5 +0.4 53 +8 +8 тепло 1013.4 1013.0 +10.5 2
18 18.03 ЮЗ 3 10 км 6/6 600 м
[Sc]
+7.8 +3.0 72 +5 +5 по сезону 1014.3 1013.9
21 18.03 ЮЗ 4 10 км 6/4 600 м
[Sc Ac trans]
+7.6 +2.9 72 +4 +4 по сезону 1013.5 1013.1
00 19.03 ЮЗ 6
{11}
10 км 8/8 600 м
[Sc]
+7.5 +3.2 74 +3 +3 по сезону 1012.4 1012.0
03 19.03 Ю 5
{11}
10 км 10/10 600 м
[Sc]
+7.7 +3.4 74 +4 +4 по сезону 1010.9 1010.5 +7.5
06 19.03 Ю 6-12
{14}
10 км слабый дождь 10/10 600 м
[Sc]
+8.0 +5.6 85 +4 +4 по сезону 1010.0 1009.6
09 19.03 Ю 6-13
{14}
10 км слабый дождь 10/10 300 м
[Sc]
+8.0 +6.1 88 +4 +4 по сезону 1008.9 1008.5
12 19.03 Ю 6-12
{14}
4000 м слабый дождь 10/10 300 м
[Frnb Ns]
+8.2 +6.4 88 +4 +4 по сезону 1008.1 1007.7
15 19.03 ЮВ 4
{13}
20 км {дождь} 10/0
[As op]
+9.7 +1.4 56 +7 +7 тепло 1006.1 1004.8 +9.7 2
18 19.03 Ю 5-12
{12}
10 км слабый дождь 10/10 300 м
[Frnb Ns]
+8.5 +6.8 89 +5 +5 по сезону 1005.8 1005.4
21 19.03 Ю 6-12
{12}
10 км слабый дождь 10/10 300 м
[Frnb Ns]
+7.1 +5.8 91 +3 +3 по сезону 1004.2 1003.8
00 20.03 Ю 5-10
{12}
10 км слабый дождь 10/10 300 м
[Frnb Ns]
+8.0 +7.0 93 +4 +4 тепло 1003.0 1002.6
03 20.03 Ю 3
{10}
10 км слабый дождь 10/10 300 м
[Frnb Ns]
+7.4 +6.1 91 +4 +4 тепло 1002.6 1002.2 +7.1 23
06 20.03 С 2 10 км слабый дождь 10/10 300 м
[Frnb Ns]
+4.2 +2.5 89 +1 +1 по сезону 1005.3 1004.9 +4.1
09 20.03 З 2 10 км слабый дождь 10/10 600 м
[Frnb Ns]
+5.1 +2.9 86 +2 +2 по сезону 1008.5 1008.1
12 20.03 З 2 20 км {дождь} 10/8 600 м
[Cu Sc Ac trans Cc]
+7.6 +2.3 69 +6 +6 по сезону 1011.0 1010.6
15 20.03 СЗ 3
{11}
4000 м слабый ливневой дождь 10/10 300 м
[Cb cap]
+4.9 +3.7 92 +1 +1 по сезону 1013.2 1012.8 +7.6 15
18 20.03 Ю 5
{10}
10 км слабый ливневой дождь 10/10 300 м
[Cb cap]
+7.0 +5.1 88 +3 +3 по сезону 1013.9 1013.5
21 20.03 штиль 0 10 км сильная гроза, ливневой дождь 10/10 300 м
[Cb cap]
+5.5 +4.1 91 +4 +4 тепло 1013.9 1013.5
00 21.03 штиль 0 10 км {гроза, ливн. осадки} 10/8 300 м
[Sc Cc]
+3.8 +2.6 92 +3 +3 по сезону 1013.8 1013.4
03 21.03 штиль 0 10 км 10/10 300 м
[Sc]
+4.1 +3.1 93 +3 +3 по сезону 1014.5 1014.1 +3.1 8
06 21.03 З 1 20 км 8/3 600 м
[Sc diur, vesp Ac cuf]
+5.9 +4.0 88 +5 +7 по сезону 1016.0 1015.6
09 21.03 Ю 2 20 км 8/8 600 м
[Sc diur, vesp]
+7.9 +3.1 72 +6 +8 по сезону 1016.2 1014.9
12 21.03 СЗ 2 20 км 8/8 600 м
[Sc diur, vesp]
+9.5 +4.3 70 +8 +10 по сезону 1016.5 1016.1
15 21.03 З 3 20 км 8/5 600 м
[Sc Ac trans]
+9.8 +5.1 73 +8 +8 тепло 1017.1 1016.7 +11.0
18 21.03 В 2 20 км 6/3 600 м
[Sc Ac trans]
+6.0 +3.6 85 +4 +4 по сезону 1018.0 1017.6
21 21.03 штиль 0 10 км 8/8 600 м
[Sc]
+6.9 +4.9 87 +6 +6 тепло 1018.8 1018.4
00 22.03 СВ 1 10 км 8/8 600 м
[Sc]
+4.3 +2.0 85 +3 +3 по сезону 1019.5 1019.1
03 22.03 штиль 0 10 км {ливн. осадки} 3/3 600 м
[Sc]
+3.1 +1.0 86 +2 +2 по сезону 1020.1 1019.7 +3.0 0.5
06 22.03 штиль 0 20 км 3/0
[Cc]
+5.6 +2.2 79 +5 +11 по сезону 1021.0 1020.6 +2.1
09 22.03 ЮЗ 2 20 км 8/3 600 м
[Sc Ac trans Cc]
+8.6 +3.4 70 +7 +12 по сезону 1021.5 1021.1
12 22.03 Ю 1 20 км 9/6 600 м
[Cu Sc Ac trans]
+9.4 +3.6 67 +9 +11 тепло 1031.4 1021.0
15 22.03 Ю 2 20 км 8/4 600 м
[Sc Ac trans Cc]
+9.1 +3.2 67 +8 +8 тепло 1021.4 1021.0 +9.6
18 22.03 штиль 0 10 км 3/0
[Ci fib]
+6.3 +2.4 76 +6 +6 по сезону 1022.2 1021.8
21 22.03 СВ 1 10 км 3/0
[Ci fib]
+4.8 +1.2 77 +4 +4 по сезону 1022.5 1022.1
00 23.03 штиль 0 10 км 3/0
[Ci fib]
+4.6 +1.0 77 +4 +4 по сезону 1022.1 1021.7
03 23.03 штиль 0 10 км 3/0
[Ci fib]
+6.0 +0.6 68 +5 +5 по сезону 1022.0 1021.6 +4.5
06 23.03 ЮВ 1 20 км ясно +8.2 +4.3 76 +8 +13 тепло 1023.0 1022.6

 

Местоположение метеостанции Новороссийск (Краснодарский край, Россия): широта 44.72 долгота 37.85 высота над уровнем моря 3 м.

В архиве по умолчанию представлена погода в Новороссийске за последнюю неделю. Архивные данные за месяц целиком и за предыдущие месяцы, начиная с января 2011 года, Вы можете получить, выбрав интересующий диапазон дат из раскрывающегося списка и нажав кнопку "Ввод!".

Внимание! Время в таблицах - всемирное. Для получения местного времени необходимо прибавить поправку, которая в Новороссийске равна 3 ч.

Смотрите также архив погоды в соседних городах и на ближайших метеорологических станциях:

Погода в Геленджике (Краснодарский край, Россия) (25 км)
Погода в Крымске (Краснодарский край, Россия) (25 км)
Погода в Анапе (Краснодарский край, Россия) (48 км)
Погода в Славянске-на-Кубани (Краснодарский край, Россия) (66 км)
Погода в Темрюке (Краснодарский край, Россия) (76 км)
Погода в Джубге (Краснодарский край, Россия) (81 км)
Погода в Горячем Ключе (Краснодарский край, Россия) (99 км)
Погода в Краснодаре (Краснодарский край, Россия) (100 км)
Погода в Тамани (Краснодарский край, Россия) (105 км)
Погода в Туапсе (Краснодарский край, Россия) (119 км)

Пояснения к столбцам:

Ветер - указаны скорость ветра в м/с - средняя за 10 мин, порывы в срок и между сроками (в фигурных скобках) и направление, откуда дует ветер: С - северный, СВ - северо-восточный, В - восточный, ЮВ - юго-восточный, Ю - южный, ЮЗ - юго-западный, З - западный, СЗ - северо-западный.
Видимость - горизонтальная дальность видимости в метрах или километрах. При видимости от 1 до 10 км при отсутствии осадков обычно наблюдается дымка, при ухудшении видимости до 1 км и менее - туман. В сухую погоду видимость может ухудшаться дымом, пылью или мглою.
Явления - указаны атмосферные явления, наблюдавшиеся в срок или в последний час перед сроком; фигурными скобками обозначены явления, наблюдавшиеся между сроками (за 1-3 часа до срока); квадратными скобками обозначены град или гололедные отложения с указанием их диаметра в мм.
Облачность - указаны через наклонную черту общая и нижняя облачность в баллах и высота нижней границы облаков в метрах; квадратными скобками обозначены формы облаков: Ci - перистые, Cs - перисто-слоистые, Cc - перисто-кучевые, Ac - высококучевые, As - высокослоистые, Sc - слоисто-кучевые, Ns - слоисто-дождевые, Cu - кучевые, Cb - кучево-дождевые. Подробнее классификацию облаков см. в Атласе облаков (PDF).
T - Температура воздуха - температура, измеренная на высоте 2 м над землей.
Td - Температура точки росы - температура, при понижении до которой содержащийся в воздухе водяной пар достигнет насыщения.
f - Относительная влажность воздуха - влажноcть воздуха, измеренная на высоте 2 м над землей.
Te - Эффективная температура - температура, которую ощущает одетый по сезону человек в тени. Характеристика душности погоды. При расчете учитывается влияние влажности воздуха и скорости ветра на теплоощущения человека.
Tes - Эффективная температура на солнце - температура, которую ощущает человек, с поправкой на солнечный нагрев. Характеристика знойности погоды. Зависит от высоты солнца над горизонтом, облачности и скорости ветра. Ночью, в пасмурную погоду, а также при ветре 12 м/с и более поправка равна нулю.
P - Атмосферное давление - приведенное к уровню моря атмосферное давление.
Po - Атмосферное давление - измеренное на уровне метеостанции атмосферное давление.
Tmin - Минимальная температура - минимум температуры воздуха на высоте 2 м над землей.
Tmax - Максимальная температура - максимум температуры воздуха на высоте 2 м над землей.
R - Количество осадков - Количество выпавших осадков, мм. При наведении курсора мыши на число - период времени, за который выпало указанное количество осадков.
S - Снежный покров - Высота снежного покрова, см. При наведении курсора мыши на число - состояние снежного покрова и степень покрытия местности в баллах.